Jackpot

Texas Poker Multi Jackpot System

Kini Telah hadir Jackpot SUPER ROYAL FLUSH

Kini Telah hadir Jackpot 2000 (khusus table VIP keatas).

Ikutilah global jackpot yang tersedia di system kami, dengan system jackpot terbaru dan pertama di indonesia, anda dapat membeli jackpot dengan harga 100 rupiah saja dan menangkan hadiahnya hingga puluhan juta rupiah.

Jackpot bukanlah suatu keharusan untuk dibeli, namun kami memberikan suatu fitur tambahan untuk member tercinta dari www.yakul88.com.

Terdapat tiga pilihan harga jackpot yang bisa anda beli yaitu :100,500,1000 dan 2000(khusus table VIP Keatas) rupiah.

Hadiah dari Multi jackpot system www.yakul88.com

  1. full house x 10 harga jackpot yang anda beli.
      (contoh:anda membeli 1000 maka:1000 X10 = 10.000)
  2. four of kind x 250 harga jackpot yang anda beli
      (contoh:anda membeli 1000 maka:1000 X250 = 250.000)
  3. Straight flush x 1200
      (contoh:anda membeli 1000 maka:1000 X1200 = 1.200.000)
  4. Royal flush x 10000 harga jackpot yang anda beli
      (contoh:anda membeli 1000 maka:1000 X10000 = 10.000.000)
  5. SUPER ROYAL FLUSH x 30000 harga jackpot yang anda beli
      (contoh:anda membeli 1000 maka:1000 X30000 = 30.000.000)

Kondisi kartu

  1. full house adalah kondisi kartu dimana kartu anda dan kartu tengah dengan total 7 kartu bisa mendapatkan nilai 5 kartu dengan kombinasi 1 tris(three of kind) dan 1 pair, contoh 3 kartu 10 dan 2 kartu 5
  2. Four of kind adalah kondisi kartu dimana kartu anda dan kartu tengah dengan total 7 kartu bisa mendapatkan nilai 5 kartu dengan kombinasi 4 kartu yang sama jumlah dan 1 kartu apapun juga contoh anda mendapatkan 4 buah kartu angka 3 dan 1 kartu apapun.
  3. Staright flush adalah kondisi kartu dimana kartu anda dan kartu tengah dengan total 7 kartu bisa mendapatkan nilai 5 kartu dengan kombinasi seri / staright dengan kembang yang sama contoh : urutan kartu dari angka 5, 6, 7, 8 , 9 10 dengan kembang yg sama misalnya as hati
  4. Royal flush adalah kondisi kartu dimana kartu anda dan kartu tengah dengan total 7 kartu bisa mendapatkan nilai 5 kartu dengan kombinasi seri / staright dengan kembang yang sama tetapi kartu tersebut haruslah dimulai dari 10. contoh 10, Queen, Jack, King dan aces dengan kembang yang sama
  5. Super Royal flush adalah kondisi kartu dimana Kedua kartu anda digabung dengan 3 kartu pertama meja haruslah royal flush. contoh kartu anda 10,Queen kembang sama dan 3 kartu pertama meja adalah Jack, King dan aces dengan kembang yang sama

Demikian adalah penjelasan dari Multi Jackpot www.yakul88.com terima kasih dan selamat bermain salam hoki dari kami

Texas Poker Jackpot Winner

TOP SUPER ROYAL FLUSH
No.TanggalNamaPriceWin
122/09 02:24TAUN101Super Royal flush30,000,000
221/09 14:11ROYALJOZZSuper Royal flush60,000,000
321/09 13:43BA_ATIYOSuper Royal flush6,000,000
421/09 12:23B8EKCBJIYMSuper Royal flush3,000,000
521/09 08:32TUPO25Super Royal flush3,000,000
TOP ROYAL FLUSH
No.TanggalNamaPriceWin
122/09 02:26NEGREANURoyal flush2,000,000
222/09 02:12HPZB6QZ1ZNRoyal flush2,000,000
322/09 01:56KUPRAANTORoyal flush10,000,000
422/09 01:56B18BANG17460Royal flush10,000,000
522/09 01:51W1D2345Royal flush1,000,000
TOP STRAIGHT FLUSH
No.TanggalNamaPriceWin
122/09 02:38WAWANAJAStraight Flush240,000
222/09 02:38MOVIER4666Straight Flush600,000
322/09 02:36BASWIR13Straight Flush120,000
422/09 02:34CAKOBD4Straight Flush120,000
522/09 02:31ARHANUD212Straight Flush120,000
LATEST JACKPOT
No.TanggalNamaPriceWin
122/09 02:39F6EEA715Full House2,000
222/09 02:39DHIMAASFull House1,000
322/09 02:39KINGHOKI_Full House5,000
422/09 02:39DADIARTOJOFull House500
522/09 02:39DRACOFull House20,000
622/09 02:39ANSOR05Full House10,000
722/09 02:39CAPON333Full House10,000
822/09 02:39DB20ED3CFull House1,000
922/09 02:39AMPHETAMINFull House5,000
1022/09 02:39MAZDIKA92Full House5,000
1122/09 02:39APALOSA04Four Of A Kind50,000
1222/09 02:39GIWANG57Full House2,000
1322/09 02:39ARJUNAA22Full House2,000
1422/09 02:39COTBADA1Full House2,000
1522/09 02:39BERAKBATUFull House20,000
1622/09 02:39JUARAWIN_Full House2,000
1722/09 02:39AY4T52Four Of A Kind50,000
1822/09 02:39RONI79Full House10,000
1922/09 02:39JIMIEFull House5,000
2022/09 02:39BOSEN281Full House2,000
2122/09 02:39XBALL44Full House1,000
2222/09 02:39H3P3NG32Full House10,000
2322/09 02:39THORIQ90Four Of A Kind50,000
2422/09 02:39PRSB1933Full House5,000
2522/09 02:39UCOKSTFull House2,000
2622/09 02:39CLEAR77Full House2,000
2722/09 02:38GASAK474Full House1,000
2822/09 02:38MALAKAMAFull House2,000
2922/09 02:38WAWANAJAStraight Flush240,000
3022/09 02:38CB77JENDRAL8Full House2,000
3122/09 02:38LEMBU1Four Of A Kind125,000
3222/09 02:38XRXXDKBYYJFull House5,000
3322/09 02:38PARNO77Full House10,000
3422/09 02:38AMS177Full House1,000
3522/09 02:38LETIHFull House5,000
3622/09 02:38PETERS22Full House5,000
3722/09 02:38BOTINZBEEFull House10,000
3822/09 02:38CHAIRIL895Full House10,000
3922/09 02:38TOBA33Full House5,000
4022/09 02:38OPERATORLIFull House1,000
4122/09 02:38KAKIDA2211Full House2,000
4222/09 02:38TAYUS89Full House1,000
4322/09 02:38MASTERJPFull House5,000
4422/09 02:38METRIX666Full House2,000
4522/09 02:38GPJP123Full House1,000
4622/09 02:38SWAST14Full House5,000
4722/09 02:38AACUUFull House5,000
4822/09 02:38ZECQIFull House2,000
4922/09 02:38TAPAY77Full House1,000
5022/09 02:38AJIASINFull House2,000

Domino Multi Jackpot System

Ikutilah global jackpot yang tersedia di system kami, dengan system jackpot terbaru dan pertama di indonesia, anda dapat membeli jackpot dengan harga 100 rupiah saja dan menangkan hadiahnya hingga puluhan juta rupiah.

Jackpot bukanlah suatu keharusan untuk dibeli, namun kami memberikan suatu fitur tambahan untuk member tercinta dari www.yakul88.com.

Terdapat tiga pilihan harga jackpot yang bisa anda beli yaitu :100,500 dan 1000 rupiah.

Hadiah dari Multi jackpot system www.yakul88.com

  1. Murni Kecil x 50 harga jackpot yang anda beli.
      (contoh:anda membeli 1000 maka:1000 X 50 = 50.000)
  2. Murni Besar x 50 harga jackpot yang anda beli
      (contoh:anda membeli 1000 maka:1000 X 50 = 50.000)
  3. BALAK x 100 harga jackpot yang anda beli
      (contoh:anda membeli 1000 maka:1000 X 100 = 100.000)
  4. ENAM DEWA x 6666 harga jackpot yang anda beli
      (contoh:anda membeli 1000 maka:1000 X 6666 = 6.666.000)

Demikian adalah penjelasan dari Multi Jackpot www.yakul88.com terima kasih dan selamat bermain salam hoki dari kami

Domino Jackpot Winner

TOP ENAM DEWA
No.TanggalNamaPriceWin
122/09 01:09WISMA92murni enam3,333,000
222/09 01:08ABAY888888murni enam3,333,000
322/09 00:44AMSEO99murni enam3,333,000
422/09 00:43DYCK22murni enam6,666,000
521/09 23:35TEMPE444murni enam666,600
TOP BALAK
No.TanggalNamaPriceWin
122/09 02:38GCP0QD2Q3Sbalak100,000
222/09 02:36KIK303balak100,000
322/09 02:33MUHIDIN86balak50,000
422/09 02:31LB886763balak50,000
522/09 02:31JHONONAR31balak100,000
LATEST JACKPOT
No.TanggalNamaPriceWin
122/09 02:38HAMAD997murni besar5,000
222/09 02:38GCP0QD2Q3Sbalak100,000
322/09 02:37LONTAR50murni kecil25,000
422/09 02:37AGAMHKNmurni besar50,000
522/09 02:36UJEHOKI99murni besar50,000
622/09 02:36KIK303balak100,000
722/09 02:36BEKANTANHSmurni kecil50,000
822/09 02:36ACIL66murni kecil50,000
922/09 02:35PRODEO17murni besar5,000
1022/09 02:35WAWANNN5Ymurni besar25,000
1122/09 02:35UJEHOKI99murni kecil50,000
1222/09 02:35JANUARY20murni besar50,000
1322/09 02:34SAWEL007murni kecil50,000
1422/09 02:33MUHIDIN86balak50,000
1522/09 02:33ARIS2608murni kecil5,000
1622/09 02:33ALDIZA99murni kecil50,000
1722/09 02:33FUCK43murni kecil5,000
1822/09 02:33HOKKI0202murni kecil25,000
1922/09 02:32P4C1L0N9murni besar50,000
2022/09 02:32R3J3KI2018murni besar50,000
2122/09 02:31LB886763balak50,000
2222/09 02:31JHONONAR31balak100,000
2322/09 02:30JHONONAR31murni kecil50,000
2422/09 02:29VIRGINJOmurni kecil50,000
2522/09 02:28AGUNG250murni besar5,000
2622/09 02:28PANGSIIT23murni besar50,000
2722/09 02:28SURANDILlucky9910,000
2822/09 02:28GEGER057murni kecil50,000
2922/09 02:27FAC8927Ebalak50,000
3022/09 02:27BERNICE23murni besar50,000
3122/09 02:26GUS13murni kecil50,000
3222/09 02:25TELO888murni besar50,000
3322/09 02:25HENDRIK6murni besar50,000
3422/09 02:25GENK990murni kecil5,000
3522/09 02:24JHELIDRINXmurni besar50,000
3622/09 02:23PANGKAS001murni besar5,000
3722/09 02:23B78GARUDA12494murni besar5,000
3822/09 02:23AMSEO99murni besar25,000
3922/09 02:23E380B203murni besar5,000
4022/09 02:22EWENCOOL77murni besar25,000
4122/09 02:22DYCK22balak100,000
4222/09 02:21DB88C835murni besar25,000
4322/09 02:21ACIL66murni kecil50,000
4422/09 02:21FRANS48balak100,000
4522/09 02:21YUGHA_77murni besar25,000
4622/09 02:21KALVENObalak100,000
4722/09 02:21PLOSO99murni kecil25,000
4822/09 02:21RIYANKY29murni besar5,000
4922/09 02:21IW4N98murni besar5,000
5022/09 02:20PBWHOKI5murni besar25,000

Ceme Multi Jackpot System

Jackpot dilihat dari gabungan kartu pemain dengan kartu bandar. Bandar harus membeli jackpot sebanyak jumlah player yang sedang duduk. Sebagai contoh bila terdapat 3 pemain duduk bermain, dan bandar memutuskan untuk membeli jackpot Rp 1.000, maka pada periode tersebut bandar akan membeli jackpot sebanyak 3xRp1.000 = Rp3.000.

Jackpot bukanlah suatu keharusan untuk dibeli, namun kami memberikan suatu fitur tambahan untuk member tercinta dari www.yakul88.com.

Terdapat tiga pilihan harga jackpot yang bisa anda beli yaitu :100,500 dan 1000 rupiah.

Hadiah dari Multi jackpot system www.yakul88.com

  1. Murni Kecil x 50 harga jackpot yang anda beli.
      (contoh:anda membeli 1000 maka:1000 X 50 = 50.000)
  2. Murni Besar x 50 harga jackpot yang anda beli
      (contoh:anda membeli 1000 maka:1000 X 50 = 50.000)
  3. BALAK x 200 harga jackpot yang anda beli
      (contoh:anda membeli 1000 maka:1000 X 200 = 200.000)
  4. ENAM DEWA x 6666 harga jackpot yang anda beli
      (contoh:anda membeli 1000 maka:1000 X 6666 = 6.666.000)

Demikian adalah penjelasan dari Multi Jackpot www.yakul88.com terima kasih dan selamat bermain salam hoki dari kami

Ceme Jackpot Winner

TOP ENAM DEWA
No.TanggalNamaPriceWin
122/09 02:18SGANTENG76murni enam666,600
222/09 02:15FUUD1111murni enam666,600
322/09 01:13ALUCARD27murni enam6,666,000
422/09 01:12MRET27murni enam3,333,000
522/09 00:58MARZO11murni enam6,666,000
TOP BALAK
No.TanggalNamaPriceWin
122/09 02:39JPDONGS11balak100,000
222/09 02:37MOKASIHDA6balak20,000
322/09 02:37BIJIUNTObalak100,000
422/09 02:37RESI120balak20,000
522/09 02:36APUNKSbalak20,000
LATEST JACKPOT
No.TanggalNamaPriceWin
122/09 02:39CUNGOmurni besar50,000
222/09 02:39JPDONGS11balak100,000
322/09 02:39TEKNO_IDmurni besar50,000
422/09 02:39PD4DRAYAmurni besar50,000
522/09 02:39IVON33murni besar50,000
622/09 02:39PUTRA9195murni besar5,000
722/09 02:38RONNY4murni kecil50,000
822/09 02:38JHASKILmurni kecil50,000
922/09 02:38THIO10murni kecil50,000
1022/09 02:38JEANY766murni kecil50,000
1122/09 02:38WIROHOKImurni kecil5,000
1222/09 02:38IBLIS92murni besar50,000
1322/09 02:38ITEUNX91murni besar25,000
1422/09 02:38JONDOL8899murni kecil50,000
1522/09 02:38JERYPRIMAmurni kecil5,000
1622/09 02:38SINAR_007murni kecil50,000
1722/09 02:38MARL1203murni besar50,000
1822/09 02:37ALDO91murni kecil50,000
1922/09 02:37MOKASIHDA6balak20,000
2022/09 02:37BIJIUNTObalak100,000
2122/09 02:37MOKASIHDA6murni besar5,000
2222/09 02:37JAMBU1207murni kecil25,000
2322/09 02:37RESI120balak20,000
2422/09 02:37APUNKSmurni besar5,000
2522/09 02:37OBBIEGTG77murni kecil5,000
2622/09 02:37JEANY766murni kecil50,000
2722/09 02:37U6REGXC8P0murni kecil50,000
2822/09 02:37GANDA40murni kecil50,000
2922/09 02:36S4_DEWAmurni besar50,000
3022/09 02:36ALWAYS9murni besar50,000
3122/09 02:36CIWIDFRmurni kecil50,000
3222/09 02:36LGTS5murni besar5,000
3322/09 02:36APUNKSbalak20,000
3422/09 02:36CEHAI37balak200,000
3522/09 02:36JEANY766murni besar50,000
3622/09 02:36TASAKURmurni besar50,000
3722/09 02:36RONNY4balak200,000
3822/09 02:36D0AGO18balak100,000
3922/09 02:36GANDORHOKIbalak20,000
4022/09 02:36GANDORHOKImurni kecil5,000
4122/09 02:36BOTOLLUCUmurni kecil50,000
4222/09 02:36ENDENmurni kecil50,000
4322/09 02:36ER02TKmurni kecil5,000
4422/09 02:36JACKTOLIB8murni kecil25,000
4522/09 02:36H9986CDEZ6murni kecil50,000
4622/09 02:36DUD411murni kecil50,000
4722/09 02:36YUNANBAmurni besar25,000
4822/09 02:36DEDDY123murni besar50,000
4922/09 02:36JEANY766murni kecil50,000
5022/09 02:36SYARANAMUAmurni kecil50,000